Wetterdaten: Donnerstag, 03.01.2019
Datum Zeit Temp. Auen Feucht Auen Luftdruck Regen Richtung Richtung Windben
03.01.2019 00:00 -2,4 C 91 % 1032,2 hPa 0,0 mm W 263 19,3 km/h (3 Bft)
03.01.2019 00:05 -2,4 C 91 % 1032,3 hPa 0,0 mm W 269 16,1 km/h (3 Bft)
03.01.2019 00:10 -2,4 C 91 % 1032,3 hPa 0,0 mm W 267 19,3 km/h (3 Bft)
03.01.2019 00:15 -2,4 C 91 % 1032,5 hPa 0,0 mm W 269 14,5 km/h (3 Bft)
03.01.2019 00:20 -2,4 C 91 % 1032,6 hPa 0,0 mm W 267 16,1 km/h (3 Bft)
03.01.2019 00:25 -2,5 C 91 % 1032,6 hPa 0,0 mm W 274 16,1 km/h (3 Bft)
03.01.2019 00:30 -2,5 C 90 % 1032,7 hPa 0,0 mm W-SW 250 16,1 km/h (3 Bft)
03.01.2019 00:35 -2,5 C 90 % 1032,7 hPa 0,0 mm W-NW 290 14,5 km/h (3 Bft)
03.01.2019 00:40 -2,5 C 90 % 1032,7 hPa 0,0 mm W-NW 284 12,9 km/h (3 Bft)
03.01.2019 00:45 -2,6 C 90 % 1032,8 hPa 0,0 mm W 263 14,5 km/h (3 Bft)
03.01.2019 00:50 -2,6 C 90 % 1032,8 hPa 0,0 mm W 279 14,5 km/h (3 Bft)
03.01.2019 00:55 -2,6 C 89 % 1032,8 hPa 0,0 mm W-NW 284 22,5 km/h (4 Bft)
03.01.2019 01:00 -2,5 C 89 % 1033,0 hPa 0,0 mm W-SW 257 16,1 km/h (3 Bft)
03.01.2019 01:05 -2,4 C 89 % 1033,0 hPa 0,0 mm W 269 22,5 km/h (4 Bft)
03.01.2019 01:10 -2,4 C 89 % 1033,1 hPa 0,0 mm W-NW 284 20,9 km/h (4 Bft)
03.01.2019 01:15 -2,4 C 89 % 1033,1 hPa 0,0 mm W 272 25,7 km/h (4 Bft)
03.01.2019 01:20 -2,4 C 89 % 1033,3 hPa 0,0 mm W 270 14,5 km/h (3 Bft)
03.01.2019 01:25 -2,5 C 89 % 1033,5 hPa 0,0 mm W 275 17,7 km/h (3 Bft)
03.01.2019 01:30 -2,6 C 89 % 1033,5 hPa 0,0 mm W-SW 254 14,5 km/h (3 Bft)
03.01.2019 01:35 -2,7 C 89 % 1033,5 hPa 0,2 mm W 269 12,9 km/h (3 Bft)
03.01.2019 01:40 -2,7 C 90 % 1033,6 hPa 0,0 mm W 278 12,9 km/h (3 Bft)
03.01.2019 01:45 -2,7 C 90 % 1033,7 hPa 0,0 mm W 273 16,1 km/h (3 Bft)
03.01.2019 01:50 -2,7 C 90 % 1033,8 hPa 0,0 mm W 264 11,3 km/h (2 Bft)
03.01.2019 01:55 -2,8 C 90 % 1033,8 hPa 0,0 mm W 272 12,9 km/h (3 Bft)
03.01.2019 02:00 -2,8 C 90 % 1033,9 hPa 0,0 mm W 269 14,5 km/h (3 Bft)
03.01.2019 02:05 -2,8 C 90 % 1034,0 hPa 0,0 mm W 268 14,5 km/h (3 Bft)
03.01.2019 02:10 -2,8 C 90 % 1034,1 hPa 0,0 mm W-SW 239 17,7 km/h (3 Bft)
03.01.2019 02:15 -2,9 C 90 % 1034,2 hPa 0,0 mm W 263 16,1 km/h (3 Bft)
03.01.2019 02:20 -2,9 C 89 % 1034,3 hPa 0,0 mm W 276 20,9 km/h (4 Bft)
03.01.2019 02:25 -2,9 C 89 % 1034,4 hPa 0,0 mm W-NW 286 20,9 km/h (4 Bft)
03.01.2019 02:30 -3,0 C 89 % 1034,5 hPa 0,0 mm W 274 12,9 km/h (3 Bft)
03.01.2019 02:35 -3,1 C 89 % 1034,6 hPa 0,0 mm W 271 16,1 km/h (3 Bft)
03.01.2019 02:40 -3,1 C 89 % 1034,6 hPa 0,0 mm W 264 14,5 km/h (3 Bft)
03.01.2019 02:45 -3,2 C 89 % 1034,7 hPa 0,0 mm W 270 8,0 km/h (2 Bft)
03.01.2019 02:50 -3,2 C 88 % 1034,7 hPa 0,0 mm W 263 14,5 km/h (3 Bft)
03.01.2019 02:55 -3,2 C 88 % 1034,8 hPa 0,0 mm W 267 12,9 km/h (3 Bft)
03.01.2019 03:00 -3,2 C 88 % 1034,8 hPa 0,0 mm W 271 8,0 km/h (2 Bft)
03.01.2019 03:05 -3,2 C 88 % 1034,8 hPa 0,0 mm W 280 9,7 km/h (2 Bft)
03.01.2019 03:10 -3,2 C 88 % 1034,8 hPa 0,0 mm W-NW 283 11,3 km/h (2 Bft)
03.01.2019 03:15 -3,2 C 88 % 1034,8 hPa 0,0 mm W 265 12,9 km/h (3 Bft)
03.01.2019 03:20 -3,2 C 88 % 1034,8 hPa 0,0 mm W 279 9,7 km/h (2 Bft)
03.01.2019 03:25 -3,2 C 88 % 1034,8 hPa 0,0 mm W-SW 246 11,3 km/h (2 Bft)
03.01.2019 03:30 -3,1 C 88 % 1034,8 hPa 0,0 mm W 270 6,4 km/h (2 Bft)
03.01.2019 03:35 -3,2 C 88 % 1034,9 hPa 0,0 mm W 281 12,9 km/h (3 Bft)
03.01.2019 03:40 -3,2 C 88 % 1034,9 hPa 0,0 mm W 277 8,0 km/h (2 Bft)
03.01.2019 03:45 -3,2 C 88 % 1034,9 hPa 0,0 mm W 272 14,5 km/h (3 Bft)
03.01.2019 03:50 -3,1 C 88 % 1034,8 hPa 0,0 mm W 275 8,0 km/h (2 Bft)
03.01.2019 03:55 -3,1 C 88 % 1034,8 hPa 0,0 mm W 275 11,3 km/h (2 Bft)
03.01.2019 04:00 -3,0 C 88 % 1034,8 hPa 0,0 mm W 263 12,9 km/h (3 Bft)
03.01.2019 04:05 -3,0 C 88 % 1034,9 hPa 0,0 mm W 280 11,3 km/h (2 Bft)
03.01.2019 04:10 -2,9 C 88 % 1035,0 hPa 0,0 mm W-NW 286 12,9 km/h (3 Bft)
03.01.2019 04:15 -3,0 C 88 % 1035,0 hPa 0,0 mm W 281 12,9 km/h (3 Bft)
03.01.2019 04:20 -3,0 C 88 % 1035,0 hPa 0,0 mm W 280 11,3 km/h (2 Bft)
03.01.2019 04:25 -3,0 C 88 % 1035,0 hPa 0,0 mm W 273 9,7 km/h (2 Bft)
03.01.2019 04:30 -3,0 C 88 % 1035,0 hPa 0,0 mm W 263 6,4 km/h (2 Bft)
03.01.2019 04:35 -3,0 C 88 % 1034,9 hPa 0,0 mm W 260 16,1 km/h (3 Bft)
03.01.2019 04:40 -3,0 C 88 % 1034,9 hPa 0,0 mm W 269 16,1 km/h (3 Bft)
03.01.2019 04:45 -2,9 C 88 % 1034,9 hPa 0,0 mm W 277 12,9 km/h (3 Bft)
03.01.2019 04:50 -2,9 C 88 % 1034,9 hPa 0,0 mm W 259 11,3 km/h (2 Bft)
03.01.2019 04:55 -3,0 C 89 % 1034,9 hPa 0,0 mm W 259 14,5 km/h (3 Bft)
03.01.2019 05:00 -3,0 C 89 % 1034,9 hPa 0,0 mm W 261 12,9 km/h (3 Bft)
03.01.2019 05:05 -3,1 C 89 % 1034,9 hPa 0,0 mm W 280 6,4 km/h (2 Bft)
03.01.2019 05:10 -3,1 C 89 % 1035,0 hPa 0,0 mm W 272 8,0 km/h (2 Bft)
03.01.2019 05:15 -3,2 C 89 % 1034,9 hPa 0,0 mm W 271 6,4 km/h (2 Bft)
03.01.2019 05:20 -3,2 C 89 % 1034,8 hPa 0,0 mm W 264 8,0 km/h (2 Bft)
03.01.2019 05:25 -3,3 C 89 % 1034,8 hPa 0,0 mm W 264 4,8 km/h (1 Bft)
03.01.2019 05:30 -3,4 C 89 % 1034,8 hPa 0,0 mm W 264 8,0 km/h (2 Bft)
03.01.2019 05:35 -3,5 C 89 % 1034,7 hPa 0,0 mm W 266 6,4 km/h (2 Bft)
03.01.2019 05:40 -3,6 C 89 % 1034,7 hPa 0,0 mm W 261 9,7 km/h (2 Bft)
03.01.2019 05:45 -3,6 C 89 % 1034,7 hPa 0,0 mm W 281 6,4 km/h (2 Bft)
03.01.2019 05:50 -3,6 C 89 % 1034,8 hPa 0,0 mm W-NW 283 12,9 km/h (3 Bft)
03.01.2019 05:55 -3,6 C 89 % 1034,8 hPa 0,0 mm W 279 6,4 km/h (2 Bft)
03.01.2019 06:00 -3,5 C 89 % 1034,9 hPa 0,0 mm W 274 8,0 km/h (2 Bft)
03.01.2019 06:05 -3,5 C 89 % 1035,0 hPa 0,0 mm W 269 11,3 km/h (2 Bft)
03.01.2019 06:10 -3,4 C 89 % 1035,0 hPa 0,0 mm W 265 11,3 km/h (2 Bft)
03.01.2019 06:15 -3,3 C 89 % 1035,0 hPa 0,0 mm W 259 12,9 km/h (3 Bft)
03.01.2019 06:20 -3,3 C 89 % 1035,0 hPa 0,0 mm W 259 12,9 km/h (3 Bft)
03.01.2019 06:25 -3,3 C 89 % 1035,0 hPa 0,0 mm W-SW 256 17,7 km/h (3 Bft)
03.01.2019 06:30 -3,3 C 89 % 1035,1 hPa 0,0 mm W 271 14,5 km/h (3 Bft)
03.01.2019 06:35 -3,3 C 89 % 1035,1 hPa 0,0 mm W-SW 252 16,1 km/h (3 Bft)
03.01.2019 06:40 -3,2 C 88 % 1035,2 hPa 0,0 mm W-NW 284 16,1 km/h (3 Bft)
03.01.2019 06:45 -3,2 C 88 % 1035,3 hPa 0,0 mm W 271 12,9 km/h (3 Bft)
03.01.2019 06:50 -3,2 C 88 % 1035,4 hPa 0,0 mm W 265 17,7 km/h (3 Bft)
03.01.2019 06:55 -3,2 C 88 % 1035,5 hPa 0,0 mm W 268 27,4 km/h (4 Bft)
03.01.2019 07:00 -3,2 C 88 % 1035,5 hPa 0,0 mm W 274 12,9 km/h (3 Bft)
03.01.2019 07:05 -3,2 C 88 % 1035,6 hPa 0,0 mm W 277 14,5 km/h (3 Bft)
03.01.2019 07:10 -3,3 C 89 % 1035,6 hPa 0,0 mm W 273 11,3 km/h (2 Bft)
03.01.2019 07:15 -3,3 C 89 % 1035,7 hPa 0,0 mm W 277 14,5 km/h (3 Bft)
03.01.2019 07:20 -3,4 C 89 % 1035,7 hPa 0,0 mm W 263 11,3 km/h (2 Bft)
03.01.2019 07:25 -3,4 C 89 % 1035,7 hPa 0,0 mm W 267 12,9 km/h (3 Bft)
03.01.2019 07:30 -3,6 C 89 % 1035,8 hPa 0,0 mm W 279 9,7 km/h (2 Bft)
03.01.2019 07:35 -3,6 C 89 % 1035,9 hPa 0,0 mm W 272 8,0 km/h (2 Bft)
03.01.2019 07:40 -3,7 C 89 % 1035,9 hPa 0,0 mm W 269 8,0 km/h (2 Bft)
03.01.2019 07:45 -3,8 C 89 % 1036,1 hPa 0,0 mm W 269 4,8 km/h (1 Bft)
03.01.2019 07:50 -3,8 C 89 % 1036,1 hPa 0,0 mm W 269 6,4 km/h (2 Bft)
03.01.2019 07:55 -3,9 C 89 % 1036,3 hPa 0,0 mm W 269 4,8 km/h (1 Bft)
03.01.2019 08:00 -3,9 C 89 % 1036,2 hPa 0,0 mm W 268 4,8 km/h (1 Bft)
03.01.2019 08:05 -3,9 C 90 % 1036,3 hPa 0,0 mm W 273 9,7 km/h (2 Bft)
03.01.2019 08:10 -3,9 C 90 % 1036,3 hPa 0,0 mm W 269 8,0 km/h (2 Bft)
03.01.2019 08:15 -3,9 C 90 % 1036,3 hPa 0,0 mm W 275 9,7 km/h (2 Bft)
03.01.2019 08:20 -3,9 C 90 % 1036,3 hPa 0,0 mm W-NW 283 8,0 km/h (2 Bft)
03.01.2019 08:25 -3,9 C 90 % 1036,4 hPa 0,0 mm W 281 6,4 km/h (2 Bft)
03.01.2019 08:30 -4,0 C 90 % 1036,4 hPa 0,0 mm W 278 9,7 km/h (2 Bft)
03.01.2019 08:35 -4,0 C 90 % 1036,4 hPa 0,0 mm W 267 8,0 km/h (2 Bft)
03.01.2019 08:40 -4,1 C 90 % 1036,4 hPa 0,0 mm W 271 8,0 km/h (2 Bft)
03.01.2019 08:45 -4,1 C 90 % 1036,4 hPa 0,0 mm W 271 6,4 km/h (2 Bft)
03.01.2019 08:50 -4,2 C 90 % 1036,5 hPa 0,0 mm W 271 6,4 km/h (2 Bft)
03.01.2019 08:55 -4,1 C 90 % 1036,5 hPa 0,0 mm W 271 6,4 km/h (2 Bft)
03.01.2019 09:00 -4,1 C 90 % 1036,6 hPa 0,0 mm W 271 4,8 km/h (1 Bft)
03.01.2019 09:05 -4,1 C 90 % 1036,5 hPa 0,0 mm W 269 8,0 km/h (2 Bft)
03.01.2019 09:10 -4,0 C 90 % 1036,5 hPa 0,0 mm W-SW 244 6,4 km/h (2 Bft)
03.01.2019 09:15 -3,9 C 90 % 1036,5 hPa 0,2 mm W 273 11,3 km/h (2 Bft)
03.01.2019 09:20 -3,8 C 90 % 1036,6 hPa 0,0 mm W 271 8,0 km/h (2 Bft)
03.01.2019 09:25 -3,7 C 90 % 1036,6 hPa 0,0 mm W 271 6,4 km/h (2 Bft)
03.01.2019 09:30 -3,5 C 90 % 1036,6 hPa 0,0 mm W-NW 294 8,0 km/h (2 Bft)
03.01.2019 09:35 -3,4 C 90 % 1036,5 hPa 0,0 mm W 281 12,9 km/h (3 Bft)
03.01.2019 09:40 -3,3 C 89 % 1036,5 hPa 0,0 mm W 259 12,9 km/h (3 Bft)
03.01.2019 09:45 -3,2 C 89 % 1036,5 hPa 0,0 mm W 263 14,5 km/h (3 Bft)
03.01.2019 09:50 -3,0 C 89 % 1036,5 hPa 0,0 mm W-NW 283 12,9 km/h (3 Bft)
03.01.2019 09:55 -2,9 C 88 % 1036,5 hPa 0,0 mm W-SW 253 16,1 km/h (3 Bft)
03.01.2019 10:00 -2,8 C 88 % 1036,6 hPa 0,0 mm W-NW 293 12,9 km/h (3 Bft)
03.01.2019 10:05 -2,7 C 88 % 1036,5 hPa 0,0 mm W 264 12,9 km/h (3 Bft)
03.01.2019 10:10 -2,6 C 87 % 1036,5 hPa 0,0 mm W-SW 245 16,1 km/h (3 Bft)
03.01.2019 10:15 -2,4 C 87 % 1036,5 hPa 0,0 mm W 273 17,7 km/h (3 Bft)
03.01.2019 10:20 -2,4 C 86 % 1036,6 hPa 0,0 mm W 264 19,3 km/h (3 Bft)
03.01.2019 10:25 -2,3 C 86 % 1036,6 hPa 0,0 mm W 267 17,7 km/h (3 Bft)
03.01.2019 10:30 -2,3 C 86 % 1036,5 hPa 0,0 mm W 277 20,9 km/h (4 Bft)
03.01.2019 10:35 -2,2 C 86 % 1036,4 hPa 0,0 mm W 281 24,1 km/h (4 Bft)
03.01.2019 10:40 -2,1 C 86 % 1036,4 hPa 0,0 mm W-SW 255 19,3 km/h (3 Bft)
03.01.2019 10:45 -2,1 C 85 % 1036,3 hPa 0,0 mm W 260 17,7 km/h (3 Bft)
03.01.2019 10:50 -2,1 C 85 % 1036,1 hPa 0,0 mm W 265 22,5 km/h (4 Bft)
03.01.2019 10:55 -2,0 C 85 % 1036,0 hPa 0,0 mm W 272 32,2 km/h (5 Bft)
03.01.2019 11:00 -1,9 C 84 % 1036,1 hPa 0,0 mm W 268 24,1 km/h (4 Bft)
03.01.2019 11:05 -1,8 C 84 % 1036,0 hPa 0,0 mm W-SW 258 22,5 km/h (4 Bft)
03.01.2019 11:10 -1,7 C 84 % 1036,0 hPa 0,0 mm W-SW 258 22,5 km/h (4 Bft)
03.01.2019 11:15 -1,7 C 84 % 1035,9 hPa 0,0 mm W 275 30,6 km/h (5 Bft)
03.01.2019 11:20 -1,7 C 83 % 1035,8 hPa 0,0 mm W 269 29,0 km/h (5 Bft)
03.01.2019 11:25 -1,7 C 83 % 1035,7 hPa 0,0 mm W 259 20,9 km/h (4 Bft)
03.01.2019 11:30 -1,7 C 83 % 1035,6 hPa 0,0 mm W 275 22,5 km/h (4 Bft)
03.01.2019 11:35 -1,7 C 83 % 1035,7 hPa 0,0 mm W 272 22,5 km/h (4 Bft)
03.01.2019 11:40 -1,6 C 83 % 1035,6 hPa 0,0 mm W 271 22,5 km/h (4 Bft)
03.01.2019 11:45 -1,6 C 83 % 1035,5 hPa 0,0 mm W-SW 257 24,1 km/h (4 Bft)
03.01.2019 11:50 -1,6 C 82 % 1035,5 hPa 0,0 mm W-SW 254 30,6 km/h (5 Bft)
03.01.2019 11:55 -1,6 C 83 % 1035,4 hPa 0,0 mm W 269 20,9 km/h (4 Bft)
03.01.2019 12:00 -1,6 C 83 % 1035,4 hPa 0,0 mm W-NW 297 25,7 km/h (4 Bft)
03.01.2019 12:05 -1,5 C 82 % 1035,4 hPa 0,0 mm W-SW 243 25,7 km/h (4 Bft)
03.01.2019 12:10 -1,5 C 82 % 1035,4 hPa 0,0 mm W 277 22,5 km/h (4 Bft)
03.01.2019 12:15 -1,5 C 82 % 1035,3 hPa 0,0 mm W 273 22,5 km/h (4 Bft)
03.01.2019 12:20 -1,5 C 82 % 1035,3 hPa 0,0 mm W-SW 250 22,5 km/h (4 Bft)
03.01.2019 12:25 -1,5 C 82 % 1035,3 hPa 0,0 mm W 267 24,1 km/h (4 Bft)
03.01.2019 12:30 -1,5 C 82 % 1034,9 hPa 0,0 mm W 279 22,5 km/h (4 Bft)
03.01.2019 12:35 -1,5 C 82 % 1034,9 hPa 0,0 mm W-SW 257 20,9 km/h (4 Bft)
03.01.2019 12:40 -1,6 C 82 % 1034,8 hPa 0,0 mm W-NW 288 25,7 km/h (4 Bft)
03.01.2019 12:45 -1,5 C 82 % 1034,6 hPa 0,0 mm W 270 20,9 km/h (4 Bft)
03.01.2019 12:50 -1,4 C 82 % 1034,9 hPa 0,0 mm W 281 20,9 km/h (4 Bft)
03.01.2019 12:55 -1,4 C 82 % 1034,9 hPa 0,0 mm W 276 20,9 km/h (4 Bft)
03.01.2019 13:00 -1,4 C 82 % 1034,8 hPa 0,0 mm W 265 25,7 km/h (4 Bft)
03.01.2019 13:05 -1,4 C 82 % 1034,7 hPa 0,0 mm W 275 22,5 km/h (4 Bft)
03.01.2019 13:10 -1,4 C 82 % 1034,7 hPa 0,0 mm W-SW 252 24,1 km/h (4 Bft)
03.01.2019 13:15 -1,4 C 82 % 1034,7 hPa 0,0 mm W 278 22,5 km/h (4 Bft)
03.01.2019 13:20 -1,4 C 82 % 1034,7 hPa 0,0 mm W 261 25,7 km/h (4 Bft)
03.01.2019 13:25 -1,4 C 83 % 1034,6 hPa 0,0 mm W 269 24,1 km/h (4 Bft)
03.01.2019 13:30 -1,4 C 82 % 1034,6 hPa 0,0 mm W 267 30,6 km/h (5 Bft)
03.01.2019 13:35 -1,4 C 82 % 1034,6 hPa 0,0 mm W 269 25,7 km/h (4 Bft)
03.01.2019 13:40 -1,5 C 82 % 1034,5 hPa 0,0 mm W-SW 247 27,4 km/h (4 Bft)
03.01.2019 13:45 -1,5 C 82 % 1034,4 hPa 0,0 mm W-SW 258 25,7 km/h (4 Bft)
03.01.2019 13:50 -1,5 C 83 % 1034,4 hPa 0,0 mm W 277 20,9 km/h (4 Bft)
03.01.2019 13:55 -1,5 C 83 % 1034,4 hPa 0,0 mm W-SW 239 20,9 km/h (4 Bft)
03.01.2019 14:00 -1,5 C 83 % 1034,4 hPa 0,0 mm W 273 25,7 km/h (4 Bft)
03.01.2019 14:05 -1,5 C 82 % 1034,3 hPa 0,0 mm W 273 24,1 km/h (4 Bft)
03.01.2019 14:10 -1,4 C 82 % 1034,3 hPa 0,0 mm W-SW 252 27,4 km/h (4 Bft)
03.01.2019 14:15 -1,4 C 82 % 1034,4 hPa 0,0 mm W-NW 291 30,6 km/h (5 Bft)
03.01.2019 14:20 -1,5 C 82 % 1034,3 hPa 0,0 mm W 265 24,1 km/h (4 Bft)
03.01.2019 14:25 -1,5 C 81 % 1034,3 hPa 0,0 mm W-SW 252 32,2 km/h (5 Bft)
03.01.2019 14:30 -1,6 C 81 % 1034,3 hPa 0,0 mm W 279 22,5 km/h (4 Bft)
03.01.2019 14:35 -1,5 C 81 % 1034,3 hPa 0,0 mm W 270 27,4 km/h (4 Bft)
03.01.2019 14:40 -1,6 C 81 % 1034,3 hPa 0,0 mm W 263 27,4 km/h (4 Bft)
03.01.2019 14:45 -1,6 C 82 % 1034,3 hPa 0,0 mm W 262 27,4 km/h (4 Bft)
03.01.2019 14:50 -1,6 C 82 % 1034,4 hPa 0,0 mm W 261 27,4 km/h (4 Bft)
03.01.2019 14:55 -1,6 C 82 % 1034,4 hPa 0,0 mm W 271 25,7 km/h (4 Bft)
03.01.2019 15:00 -1,7 C 82 % 1034,3 hPa 0,0 mm W-SW 256 27,4 km/h (4 Bft)
03.01.2019 15:05 -1,7 C 82 % 1034,4 hPa 0,0 mm W-SW 246 14,5 km/h (3 Bft)
03.01.2019 15:10 -1,7 C 82 % 1034,4 hPa 0,0 mm W 273 20,9 km/h (4 Bft)
03.01.2019 15:15 -1,7 C 82 % 1034,4 hPa 0,0 mm W-SW 257 25,7 km/h (4 Bft)
03.01.2019 15:20 -1,7 C 82 % 1034,3 hPa 0,0 mm W 265 27,4 km/h (4 Bft)
03.01.2019 15:25 -1,7 C 82 % 1034,3 hPa 0,0 mm W 266 25,7 km/h (4 Bft)
03.01.2019 15:30 -1,7 C 82 % 1034,2 hPa 0,0 mm W 263 24,1 km/h (4 Bft)
03.01.2019 15:35 -1,7 C 82 % 1034,1 hPa 0,0 mm W 279 25,7 km/h (4 Bft)
03.01.2019 15:40 -1,8 C 82 % 1033,9 hPa 0,0 mm W-SW 250 22,5 km/h (4 Bft)
03.01.2019 15:45 -1,8 C 82 % 1033,9 hPa 0,0 mm W 270 24,1 km/h (4 Bft)
03.01.2019 15:50 -1,8 C 82 % 1033,8 hPa 0,0 mm W 262 22,5 km/h (4 Bft)
03.01.2019 15:55 -1,8 C 82 % 1033,8 hPa 0,0 mm W 263 25,7 km/h (4 Bft)
03.01.2019 16:00 -1,8 C 81 % 1034,0 hPa 0,0 mm W 267 27,4 km/h (4 Bft)
03.01.2019 16:05 -1,8 C 81 % 1034,1 hPa 0,0 mm W 262 20,9 km/h (4 Bft)
03.01.2019 16:10 -1,9 C 82 % 1034,2 hPa 0,0 mm W 271 22,5 km/h (4 Bft)
03.01.2019 16:15 -1,9 C 82 % 1034,3 hPa 0,0 mm W 275 25,7 km/h (4 Bft)
03.01.2019 16:20 -1,9 C 82 % 1034,4 hPa 0,0 mm W-NW 285 20,9 km/h (4 Bft)
03.01.2019 16:25 -1,9 C 82 % 1034,3 hPa 0,0 mm W-NW 292 17,7 km/h (3 Bft)
03.01.2019 16:30 -1,9 C 82 % 1034,3 hPa 0,0 mm W-NW 292 19,3 km/h (3 Bft)
03.01.2019 16:35 -1,9 C 82 % 1034,2 hPa 0,0 mm W 267 22,5 km/h (4 Bft)
03.01.2019 16:40 -1,9 C 82 % 1034,2 hPa 0,0 mm W-NW 290 20,9 km/h (4 Bft)
03.01.2019 16:45 -1,9 C 82 % 1034,1 hPa 0,0 mm W-SW 251 22,5 km/h (4 Bft)
03.01.2019 16:50 -1,9 C 82 % 1034,2 hPa 0,0 mm W 272 22,5 km/h (4 Bft)
03.01.2019 16:55 -1,9 C 82 % 1034,3 hPa 0,0 mm W-SW 255 17,7 km/h (3 Bft)
03.01.2019 17:00 -1,9 C 83 % 1034,3 hPa 0,0 mm W 266 14,5 km/h (3 Bft)
03.01.2019 17:05 -1,9 C 83 % 1034,3 hPa 0,0 mm W 277 19,3 km/h (3 Bft)
03.01.2019 17:10 -2,0 C 84 % 1034,4 hPa 0,0 mm W 263 20,9 km/h (4 Bft)
03.01.2019 17:15 -2,1 C 84 % 1034,2 hPa 0,0 mm W-NW 286 16,1 km/h (3 Bft)
03.01.2019 17:20 -2,1 C 85 % 1034,3 hPa 0,0 mm W 281 14,5 km/h (3 Bft)
03.01.2019 17:25 -2,1 C 85 % 1034,3 hPa 0,0 mm W 276 11,3 km/h (2 Bft)
03.01.2019 17:30 -2,2 C 85 % 1034,5 hPa 0,0 mm W-NW 284 11,3 km/h (2 Bft)
03.01.2019 17:35 -2,2 C 86 % 1034,3 hPa 0,0 mm W 273 16,1 km/h (3 Bft)
03.01.2019 17:40 -2,2 C 86 % 1034,1 hPa 0,0 mm W 265 14,5 km/h (3 Bft)
03.01.2019 17:45 -2,3 C 86 % 1034,2 hPa 0,0 mm W 269 12,9 km/h (3 Bft)
03.01.2019 17:50 -2,3 C 87 % 1034,3 hPa 0,0 mm W 269 12,9 km/h (3 Bft)
03.01.2019 17:55 -2,3 C 87 % 1034,2 hPa 0,0 mm W 276 12,9 km/h (3 Bft)
03.01.2019 18:00 -2,3 C 87 % 1034,1 hPa 0,0 mm W 273 11,3 km/h (2 Bft)
03.01.2019 18:05 -2,3 C 87 % 1034,2 hPa 0,0 mm W-SW 257 11,3 km/h (2 Bft)
03.01.2019 18:10 -2,3 C 87 % 1034,0 hPa 0,0 mm W 277 12,9 km/h (3 Bft)
03.01.2019 18:15 -2,3 C 88 % 1034,0 hPa 0,0 mm W 263 14,5 km/h (3 Bft)
03.01.2019 18:20 -2,4 C 88 % 1034,0 hPa 0,0 mm W-SW 249 16,1 km/h (3 Bft)
03.01.2019 18:25 -2,4 C 88 % 1034,1 hPa 0,0 mm W 265 14,5 km/h (3 Bft)
03.01.2019 18:30 -2,4 C 88 % 1034,1 hPa 0,0 mm W 269 19,3 km/h (3 Bft)
03.01.2019 18:35 -2,4 C 88 % 1034,1 hPa 0,0 mm W-SW 255 11,3 km/h (2 Bft)
03.01.2019 18:40 -2,4 C 88 % 1034,2 hPa 0,0 mm W-NW 282 12,9 km/h (3 Bft)
03.01.2019 18:45 -2,4 C 88 % 1034,1 hPa 0,0 mm W 269 17,7 km/h (3 Bft)
03.01.2019 18:50 -2,4 C 89 % 1034,1 hPa 0,0 mm W 266 12,9 km/h (3 Bft)
03.01.2019 18:55 -2,4 C 88 % 1034,2 hPa 0,0 mm W-NW 294 16,1 km/h (3 Bft)
03.01.2019 19:00 -2,4 C 89 % 1034,2 hPa 0,0 mm W 276 14,5 km/h (3 Bft)
03.01.2019 19:05 -2,4 C 89 % 1034,2 hPa 0,0 mm W 275 12,9 km/h (3 Bft)
03.01.2019 19:10 -2,5 C 89 % 1034,3 hPa 0,2 mm W 265 17,7 km/h (3 Bft)
03.01.2019 19:15 -2,5 C 89 % 1034,2 hPa 0,0 mm W 275 17,7 km/h (3 Bft)
03.01.2019 19:20 -2,6 C 89 % 1034,3 hPa 0,0 mm W-NW 284 16,1 km/h (3 Bft)
03.01.2019 19:25 -2,6 C 90 % 1034,3 hPa 0,0 mm W 277 16,1 km/h (3 Bft)
03.01.2019 19:30 -2,6 C 90 % 1034,3 hPa 0,2 mm W-SW 258 11,3 km/h (2 Bft)
03.01.2019 19:35 -2,6 C 90 % 1034,3 hPa 0,0 mm W 261 12,9 km/h (3 Bft)
03.01.2019 19:40 -2,6 C 90 % 1034,4 hPa 0,0 mm W 273 11,3 km/h (2 Bft)
03.01.2019 19:45 -2,6 C 90 % 1034,4 hPa 0,0 mm W 274 16,1 km/h (3 Bft)
03.01.2019 19:50 -2,6 C 90 % 1034,4 hPa 0,2 mm W-NW 282 20,9 km/h (4 Bft)
03.01.2019 19:55 -2,6 C 91 % 1034,4 hPa 0,0 mm W 259 16,1 km/h (3 Bft)
03.01.2019 20:00 -2,7 C 91 % 1034,4 hPa 0,2 mm W 277 12,9 km/h (3 Bft)
03.01.2019 20:05 -2,6 C 91 % 1034,4 hPa 0,0 mm W-NW 294 12,9 km/h (3 Bft)
03.01.2019 20:10 -2,6 C 91 % 1034,4 hPa 0,0 mm W 271 12,9 km/h (3 Bft)
03.01.2019 20:15 -2,7 C 91 % 1034,4 hPa 0,2 mm W-SW 257 19,3 km/h (3 Bft)
03.01.2019 20:20 -2,7 C 91 % 1034,6 hPa 0,0 mm W 267 17,7 km/h (3 Bft)
03.01.2019 20:25 -2,7 C 92 % 1034,5 hPa 0,0 mm W 266 14,5 km/h (3 Bft)
03.01.2019 20:30 -2,7 C 92 % 1034,5 hPa 0,0 mm W 261 14,5 km/h (3 Bft)
03.01.2019 20:35 -2,7 C 92 % 1034,5 hPa 0,0 mm W 277 14,5 km/h (3 Bft)
03.01.2019 20:40 -2,7 C 92 % 1034,6 hPa 0,0 mm W-SW 255 12,9 km/h (3 Bft)
03.01.2019 20:45 -2,7 C 92 % 1034,5 hPa 0,0 mm W 267 12,9 km/h (3 Bft)
03.01.2019 20:50 -2,6 C 92 % 1034,5 hPa 0,2 mm W 265 16,1 km/h (3 Bft)
03.01.2019 20:55 -2,6 C 92 % 1034,5 hPa 0,0 mm W 264 12,9 km/h (3 Bft)
03.01.2019 21:00 -2,6 C 92 % 1034,4 hPa 0,0 mm W 259 14,5 km/h (3 Bft)
03.01.2019 21:05 -2,6 C 92 % 1034,5 hPa 0,0 mm W 278 14,5 km/h (3 Bft)
03.01.2019 21:10 -2,6 C 92 % 1034,4 hPa 0,0 mm W-NW 288 16,1 km/h (3 Bft)
03.01.2019 21:15 -2,6 C 92 % 1034,4 hPa 0,0 mm W 281 9,7 km/h (2 Bft)
03.01.2019 21:20 -2,6 C 92 % 1034,3 hPa 0,0 mm W-NW 284 14,5 km/h (3 Bft)
03.01.2019 21:25 -2,6 C 93 % 1034,3 hPa 0,0 mm W 267 14,5 km/h (3 Bft)
03.01.2019 21:30 -2,6 C 93 % 1034,3 hPa 0,0 mm W 274 16,1 km/h (3 Bft)
03.01.2019 21:35 -2,6 C 93 % 1034,4 hPa 0,0 mm W 269 19,3 km/h (3 Bft)
03.01.2019 21:40 -2,6 C 93 % 1034,3 hPa 0,0 mm W 261 14,5 km/h (3 Bft)
03.01.2019 21:45 -2,5 C 93 % 1034,2 hPa 0,0 mm W 278 12,9 km/h (3 Bft)
03.01.2019 21:50 -2,5 C 93 % 1034,3 hPa 0,2 mm W 275 8,0 km/h (2 Bft)
03.01.2019 21:55 -2,5 C 93 % 1034,2 hPa 0,0 mm W-NW 296 11,3 km/h (2 Bft)
03.01.2019 22:00 -2,5 C 93 % 1034,1 hPa 0,0 mm W 263 11,3 km/h (2 Bft)
03.01.2019 22:05 -2,5 C 93 % 1034,1 hPa 0,0 mm W 272 16,1 km/h (3 Bft)
03.01.2019 22:10 -2,5 C 93 % 1034,2 hPa 0,0 mm W 271 11,3 km/h (2 Bft)
03.01.2019 22:15 -2,4 C 93 % 1034,1 hPa 0,0 mm W 266 12,9 km/h (3 Bft)
03.01.2019 22:20 -2,4 C 93 % 1034,1 hPa 0,0 mm W-NW 285 14,5 km/h (3 Bft)
03.01.2019 22:25 -2,4 C 93 % 1034,2 hPa 0,0 mm W-SW 244 12,9 km/h (3 Bft)
03.01.2019 22:30 -2,4 C 93 % 1034,2 hPa 0,0 mm W 275 9,7 km/h (2 Bft)
03.01.2019 22:35 -2,4 C 93 % 1034,2 hPa 0,0 mm W-SW 251 6,4 km/h (2 Bft)
03.01.2019 22:40 -2,4 C 93 % 1034,2 hPa 0,0 mm W 259 11,3 km/h (2 Bft)
03.01.2019 22:45 -2,4 C 93 % 1034,2 hPa 0,2 mm W 261 14,5 km/h (3 Bft)
03.01.2019 22:50 -2,4 C 93 % 1034,2 hPa 0,0 mm W 264 14,5 km/h (3 Bft)
03.01.2019 22:55 -2,4 C 93 % 1034,2 hPa 0,0 mm W-NW 283 19,3 km/h (3 Bft)
03.01.2019 23:00 -2,3 C 93 % 1034,2 hPa 0,0 mm W-SW 258 19,3 km/h (3 Bft)
03.01.2019 23:05 -2,3 C 93 % 1034,2 hPa 0,0 mm W 272 17,7 km/h (3 Bft)
03.01.2019 23:10 -2,3 C 93 % 1034,2 hPa 0,0 mm W 279 14,5 km/h (3 Bft)
03.01.2019 23:15 -2,3 C 93 % 1034,3 hPa 0,2 mm W 279 14,5 km/h (3 Bft)
03.01.2019 23:20 -2,3 C 93 % 1034,3 hPa 0,0 mm W 262 12,9 km/h (3 Bft)
03.01.2019 23:25 -2,3 C 93 % 1034,4 hPa 0,0 mm W-NW 290 11,3 km/h (2 Bft)
03.01.2019 23:30 -2,4 C 93 % 1034,4 hPa 0,2 mm W 278 11,3 km/h (2 Bft)
03.01.2019 23:35 -2,6 C 93 % 1034,6 hPa 0,2 mm W-SW 244 14,5 km/h (3 Bft)
03.01.2019 23:40 -2,7 C 93 % 1034,6 hPa 0,2 mm W-SW 240 9,7 km/h (2 Bft)
03.01.2019 23:45 -2,7 C 93 % 1034,7 hPa 0,0 mm W 271 6,4 km/h (2 Bft)
03.01.2019 23:50 -2,8 C 93 % 1034,8 hPa 0,2 mm N 5 6,4 km/h (2 Bft)
03.01.2019 23:55 -2,9 C 93 % 1034,8 hPa 0,0 mm W-SW 254 4,8 km/h (1 Bft)
_ Min-Zeit 08:50 14:25 00:00 - - - 05:25
Minimum _ -4,2 C 81 % 1032,2 hPa - - - 4,8 km/h (1 Bft)
_ Max-Zeit 12:20 21:25 09:00 01:35 - - 10:55
Maximum _ -1,4 C 93 % 1036,6 hPa 0,2 mm - - 32,2 km/h
W (5 Bft)
Durchschnitt _ -2,6 C 88 % 1034,7 hPa #3,0 mm W - 15,9 km/h (3 Bft)